Flag for Australia Weather past 2 weeks in Rockhampton, Queensland, Australia

Now
70 °F

Overcast.


Feels Like: 70 °F
Forecast: 57 / 79 °F
Wind: 6 mph from Southeast

Location: Rockhampton Airport

Current Time: Jul 26, 2014 at 5:43:41 PM

Latest Report: Jul 26, 2014 at 5:00 PM


Visibility: N/A

Pressure: 30.21 "Hg

Humidity: 73%

Dew point: 61 °F

Location of RockhamptonLocation

Historic Weather in Rockhampton — Graph

°F

Rockhampton temperature yesterday

Maximum temperature yesterday: 77 °F (at 1:00 PM)
Minimum temperature yesterday: 59 °F (at 12:00 AM)
Average temperature yesterday: 66 °F

Past Weeks' High & Low Weather Summary

 TemperatureHumidityPressure
High81 °F (Jul 17, 3:30 PM)100% (Jul 12, 5:00 AM)30.30 "Hg (Jul 12, 5:00 AM)
Low36 °F (Jul 12, 7:00 AM)11% (Jul 19, 3:30 PM)29.98 "Hg (Jul 17, 1:30 PM)
Average61 °F62%30.13 "Hg
* Reported Jul 11 4:00 PM — Jul 26 4:30 PM, Rockhampton, Weather by CustomWeather, © 2014

Note: Actual official high and low records may vary slightly from our data, if they occured in-between our weather recording intervals... More about our weather records

Advertising

Rockhampton weather history for previous 24 hours

 ConditionsComfort  
Time TempWeatherWind HumidityBarometerVisibility
4:30 PM
Jul 26
70 °FOvercast.3 mph73%30.21 "HgN/A
4:00 PM72 °FOvercast.5 mph69%30.21 "HgN/A
3:30 PM72 °FOvercast.6 mph69%30.21 "HgN/A
3:00 PM72 °FPartly sunny.6 mph69%30.21 "HgN/A
2:30 PM72 °FPartly sunny.6 mph69%30.21 "HgN/A
2:00 PM72 °FSunny.7 mph69%30.21 "HgN/A
1:30 PM72 °FSunny.6 mph69%30.21 "HgN/A
1:00 PM72 °FPartly sunny.7 mph69%30.21 "HgN/A
12:30 PM70 °FPartly sunny.8 mph73%30.24 "HgN/A
12:00 PM70 °FPartly sunny.9 mph69%30.24 "HgN/A
11:30 AM70 °FPartly sunny.9 mph69%30.27 "HgN/A
11:00 AM70 °FPartly sunny.7 mph69%30.27 "HgN/A
10:30 AM68 °FPartly sunny.8 mph73%30.27 "HgN/A
10:00 AM66 °FSunny.9 mph78%30.27 "Hg10 mi
9:30 AM66 °FSunny.6 mph78%30.27 "Hg10 mi
9:00 AM64 °FSunny.6 mph83%30.27 "Hg10 mi
8:30 AM63 °FSunny.7 mph83%30.27 "Hg10 mi
8:00 AM63 °FPartly sunny.6 mph83%30.27 "HgN/A
7:30 AM63 °FSunny.7 mph83%30.27 "Hg10 mi
7:00 AM63 °FSunny.8 mph83%30.24 "Hg10 mi
6:30 AM63 °FPartly sunny.8 mph83%30.27 "HgN/A
6:00 AM63 °FSunny.9 mph83%30.24 "Hg10 mi
5:30 AM63 °FClear.7 mph88%30.24 "HgN/A
5:00 AM63 °FClear.7 mph88%30.21 "HgN/A
4:30 AM63 °FClear.7 mph88%30.21 "HgN/A
4:00 AM63 °FClear.6 mph88%30.24 "HgN/A
3:30 AM63 °FClear.7 mph88%30.24 "HgN/A
3:00 AM63 °FClear.8 mph88%30.24 "HgN/A
2:30 AM63 °FClear.6 mph88%30.24 "HgN/A
2:00 AM63 °FClear.7 mph88%30.24 "HgN/A
1:30 AM63 °FClear.6 mph88%30.24 "HgN/A
1:00 AM63 °FClear.6 mph88%30.27 "HgN/A
12:30 AM63 °FClear.6 mph88%30.27 "HgN/A
12:00 AM63 °FClear.6 mph88%30.27 "HgN/A
11:30 PM
Jul 25
64 °FClear.7 mph83%30.27 "HgN/A
11:00 PM64 °FPassing clouds.6 mph83%30.30 "HgN/A
10:30 PM64 °FPassing clouds.5 mph88%30.30 "HgN/A
10:00 PM64 °FClear.7 mph88%30.27 "Hg10 mi
9:30 PM64 °FPassing clouds.8 mph83%30.27 "HgN/A
9:00 PM66 °FPassing clouds.8 mph78%30.27 "HgN/A
8:30 PM64 °FClear.6 mph83%30.27 "Hg10 mi
8:00 PM66 °FClear.6 mph73%30.27 "Hg10 mi
7:30 PM66 °FClear.6 mph78%30.24 "Hg10 mi
7:00 PM68 °FClear.7 mph69%30.24 "Hg10 mi
6:30 PM68 °FClear.6 mph69%30.21 "Hg10 mi
6:00 PM70 °FClear.7 mph64%30.21 "Hg10 mi
5:30 PM70 °FClear.8 mph64%30.21 "Hg10 mi
5:00 PM70 °FClear.8 mph69%30.21 "Hg10 mi
Weather by CustomWeather, © 2014

See weather overviewHow to use our weather pages